Regional Weather Roundup
Issued by NWS

Home | Current Version | Previous Version | Graphics & Text | Print | Product List | Glossary On
Versions: 1 2 3 4 5 6 7 8 9 10 11 12 13 14 15 16 17 18 19 20 21 22 23 24 25 26 27 28 29 30 31 32 33 34 35 36 37 38 39 40 41 42 43 44 45 46 47 48 49 50
000
ASUS43 KLMK 281702
RWRKY
KENTUCKY REGIONAL WEATHER ROUNDUP
NATIONAL WEATHER SERVICE LOUISVILLE KY
100 PM EDT THU AUG 28 2014

NOTE "FAIR" INDICATES FEW OR NO CLOUDS BELOW 12,000 FEET
WITH NO SIGNIFICANT WEATHER AND/OR OBSTRUCTIONS TO VISIBILITY.

KYZ001>023-026-027-061>063-070>075-281800-
WESTERN AND SOUTH CENTRAL KENTUCKY

CITY           SKY/WX    TMP DP  RH WIND       PRES   REMARKS
PADUCAH        SUNNY     90  73  57 CALM      30.02F HX  98
HENDERSON      SUNNY     88  73  62 NE5       30.03F HX  96
OWENSBORO      MOSUNNY   87  74  65 E6        30.04F HX  95
HOPKINSVILLE   MOSUNNY   89  74  61 VRB5      30.03F HX  97
BOWLING GREEN  MOSUNNY   88  70  55 CALM      30.05F HX  93
GLASGOW        CLOUDY    85  72  64 CALM      30.05F HX  92
$$

KYZ024-025-028>034-038-045-046-053-281800-
NORTH CENTRAL KENTUCKY

CITY           SKY/WX    TMP DP  RH WIND       PRES   REMARKS
LOUISVILLE/SDF PTSUNNY   86  71  60 NW3       30.05F HX  91
LOUISVILLE/LOU MOSUNNY   85  70  60 CALM      30.06F
FORT KNOX      PTSUNNY   84  72  65 E7        30.05F
$$

KYZ035>037-039>044-047>052-055>060-089>105-281800-
NORTHEAST KENTUCKY

CITY           SKY/WX    TMP DP  RH WIND       PRES   REMARKS
LEXINGTON      MOSUNNY   82  72  71 NE10      30.10R
COVINGTON      MOSUNNY   82  63  52 CALM      30.10S
FRANKFORT      PTSUNNY   82  72  71 E5        30.08S
$$

KYZ054-064>069-076>088-106>120-281800-
SOUTHEAST KENTUCKY

CITY           SKY/WX    TMP DP  RH WIND       PRES   REMARKS
JACKSON        CLOUDY    77  70  79 CALM      30.11F HAZE
LONDON         CLOUDY    85  70  60 NE7       30.08F
SOMERSET       PTSUNNY   86  68  54 N5        30.08S
MIDDLESBORO    MOSUNNY   84  71  63 NE3       30.08F
MONTICELLO     MOSUNNY   87  75  67 CALM      30.08F HX  96
$$




USA.gov is the U.S. government's official web portal to all federal, state and local government web resources and services.